Regional Weather Roundup
Issued by NWS

Home | Current Version | Previous Version | Graphics & Text | Print | Product List | Glossary On
Versions: 1 2 3 4 5 6 7 8 9 10 11 12 13 14 15 16 17 18 19 20 21 22 23 24 25 26 27 28 29 30 31 32 33 34 35 36 37 38 39 40 41 42 43 44 45 46 47 48 49 50
000
ASUS45 KBOU 072307
RWRCO

WEATHER ROUNDUP FOR COLORADO
NATIONAL WEATHER SERVICE DENVER/BOULDER CO
400 PM MST SUN FEB 07 2016

NOTE: "FAIR" INDICATES FEW OR NO CLOUDS BELOW 12000 FEET WITH NO
SIGNIFICANT WEATHER AND/OR OBSTRUCTIONS TO VISIBILITY.

COZ001>005-013-030-031-080000-
...NORTHWEST COLORADO...

CITY           SKY/WX    TMP DP  RH WIND       PRES   REMARKS
CRAIG          CLOUDY    20  13  74 CALM      30.47R
HAYDEN         CLOUDY    25  12  58 CALM      30.45R
MEEKER         CLOUDY    33  20  58 CALM      30.44F
MOUNT WERNER   NOT AVBL
STEAMBOAT SPGS CLOUDY    31  18  56 W6        30.43R WCI  26
WALDEN         CLOUDY    30  16  55 SW10      30.36S WCI  21
$$

COZ006>008-011-080000-
...WEST CENTRAL VALLEYS...

CITY           SKY/WX    TMP DP  RH WIND       PRES   REMARKS
GRAND JUNCTION CLOUDY    33  21  61 E3        30.49F
MONTROSE       CLOUDY    36  18  48 NE3       30.49S
EAGLE          SUNNY     41  18  38 S16G23    30.42F
RIFLE          CLOUDY    33  15  47 CALM      30.46F
DELTA          CLOUDY    38  17  44 CALM      30.49F
NUCLA          CLOUDY    39  19  45 CALM      30.47S
$$

COZ017>023-064>068-080000-
...SOUTHWEST COLORADO...

CITY           SKY/WX    TMP DP  RH WIND       PRES   REMARKS
DURANGO        CLOUDY    34  17  50 NE5       30.36R WCI  30
CORTEZ         SUNNY     43  25  49 NW13      30.37R
PAGOSA SPRINGS CLOUDY    40  17  40 CALM      30.36R
TELLURIDE      CLOUDY    38  13  35 W6        30.45S
WOLF CREEK PAS CLOUDY    30   1  29 NW6       30.46R WCI  24
$$

COZ009-010-012-014-032>034-037-058>063-080000-
...CENTRAL COLORADO...

CITY           SKY/WX    TMP DP  RH WIND       PRES   REMARKS
ASPEN          CLOUDY    35  16  45 N8        30.43R WCI  29
BUENA VISTA    CLOUDY    39  12  33 NW17      30.27F
COPPER MTN     CLOUDY    23  10  58 NW20G29   30.37R WCI   8
BERTHOUD PASS  FAIR      12   1  62 NW49G76   30.21F HAZE    WCI -14
COTTONWOOD PAS CLOUDY    36   1  23 W20G48    30.24F
GUNNISON       CLOUDY    12   3  67 NE6       30.50F WCI   3
KREMMLING      CLOUDY    32  14  47 N10       30.41S WCI  24
LEADVILLE      CLOUDY    26   8  46 NW16G24   30.38R WCI  14
MONARCH PASS   CLOUDY    19  12  73 MISG      30.44F
SALIDA         NOT AVBL
SUNLIGHT       CLOUDY    27  19  74 SW3         N/A
WILKERSON PASS CLOUDY    28   7  40 NW15G32   30.31F WCI  17
$$

COZ069>075-080000-
...SAN LUIS VALLEY/SANGRE DE CRISTO MOUNTAINS...

CITY           SKY/WX    TMP DP  RH WIND       PRES   REMARKS
ALAMOSA        CLOUDY    44  15  31 CALM      30.33R
LA VETA PASS   CLOUDY    34  10  37 S10G20    30.32S WCI  26
SAGUACHE       CLOUDY    37  18  44 NW26G35   30.34R
$$

COZ035-036-038>040-080000-
...NORTHERN COLORADO FRONT RANGE...

CITY           SKY/WX    TMP DP  RH WIND       PRES   REMARKS
DENVER INTL AP CLOUDY    27  19  72 E16       30.28R WCI  15
DMNS CITY PARK   N/A     31  20  66 E14G21    30.27R WCI  20
AURORA         PTSUNNY   27  21  78 E16       30.28R WCI  15
FRONT RANGE AP PTSUNNY   27  19  74 E12G18    30.30R WCI  16
ERIE MUNI ARPT CLOUDY    32  22  67 E15G21    30.28R WCI  22
BOULDER MUN AP CLOUDY    32  23  69 NE10      30.28R WCI  24
CENTENNIAL     CLOUDY    30  21  69 E12       30.25S WCI  20
BROOMFIELD     MOSUNNY   36  23  60 E13       30.25S
FORT COLLINS   CLOUDY    28  19  69 S9        30.30R WCI  20
LONGMONT       CLOUDY    35  24  63 E13       30.31R WCI  26
$$

COZ041-046-047-076>085-087-088-080000-
...PIKES PEAK/PALMER DIVIDE AND SOUTHERN FOOTHILLS...

CITY           SKY/WX    TMP DP  RH WIND       PRES   REMARKS
COLO. SPRINGS  CLOUDY    30  20  66 SE7       30.27F WCI  23
A. F. ACADEMY  CLOUDY    31  20  65 S8        30.25R WCI  23
SCHRIEVER AFB  FAIR      28  20  71 SW6       30.27S WCI  22
ELLICOTT       NOT AVBL
FALCON         CLOUDY    29  19  67 SW6       30.26R WCI  23
FORT CARSON    CLOUDY    31  22  71 SE12      30.26F WCI  21
LIMON          CLOUDY    26  19  74 N10       30.31R WCI  16
MONUMENT HILL  CLOUDY    25  19  80 E5        30.25S WCI  19
TRINIDAD       SUNNY     40  22  48 NE12      30.28R
$$

COZ042>045-048>051-090-091-080000-
...NORTHEAST COLORADO...

CITY           SKY/WX    TMP DP  RH WIND       PRES   REMARKS
GREELEY ARPT   SUNNY     30  23  74 E12       30.30R WCI  21
AKRON          CLOUDY    28  17  63 N23G31    30.30S WCI  14
BURLINGTON     CLOUDY    32  18  56 N21G26    30.29R WCI  20
WRAY           CLOUDY    34  19  53 NW23G32   30.28S WCI  22
STERLING       CLOUDY    32  21  64 N28G35    30.26S WCI  18
HOLYOKE        SUNNY     34  19  55 NW20G28   30.28R WCI  22
FORT MORGAN    CLOUDY    30  18  60 N21       30.33R WCI  17
$$

COZ086-089-092>099-080000-
...SOUTHEAST COLORADO...

CITY           SKY/WX    TMP DP  RH WIND       PRES   REMARKS
PUEBLO         SUNNY     37  23  56 E12       30.30F
LA JUNTA       SUNNY     37  22  54 NE12      30.33S
LAMAR          SUNNY     40  18  41 N21       30.32R
SPRINGFIELD      N/A     37  18  46 N18       30.29R
$$




USA.gov is the U.S. government's official web portal to all federal, state and local government web resources and services.